Home   Weather   Kaliningrad   Past weeks

Flag for Russia Past Weather in Kaliningrad, Russia — Yesterday and Last 2 Weeks

Now
57 °F

Scattered clouds.


Feels Like: 57 °F
Forecast: 58 / 70 °F
Wind: 3 mph from West

Location: Kaliningrad/Khrabrovo Airport

Current Time: Aug 30, 2016 at 9:02:19 PM

Latest Report: Aug 30, 2016 at 8:00 PM


Visibility: N/A

Pressure: 30.15 "Hg

Humidity: 82%

Dew Point: 52 °F

Location of KaliningradLocation

Past Weather in Kaliningrad — Graph

°F

Kaliningrad Temperature Yesterday

Maximum temperature yesterday: 73 °F (at 11:00 AM)
Minimum temperature yesterday: 63 °F (at 3:00 AM)
Average temperature yesterday: 68 °F

High & Low Weather Summary for the Past Weeks

 TemperatureHumidityPressure
High79 °F (Aug 20, 1:30 PM)100% (Aug 17, 10:00 AM)30.33 "Hg (Aug 17, 10:00 AM)
Low52 °F (Aug 19, 5:30 AM)37% (Aug 26, 2:30 PM)29.71 "Hg (Aug 18, 2:00 AM)
Average64 °F82%30.03 "Hg
* Reported Aug 15 8:00 PM — Aug 30 8:00 PM, Kaliningrad, Weather by CustomWeather, © 2016

Note: Actual official high and low records may vary slightly from our data, if they occured in-between our weather recording intervals... More about our weather records

Advertising

Kaliningrad Weather History for the Previous 24 Hours

Scroll right to see more
 ConditionsComfort  
Time TempWeatherWind HumidityBarometerVisibility
8:00 PM
Tue, Aug 30
57 °FScattered clouds.3 mph82%30.15 "HgN/A
7:30 PM59 °FScattered clouds.6 mph77%30.15 "HgN/A
7:00 PM61 °FScattered clouds.6 mph72%30.15 "HgN/A
6:30 PM61 °FPassing clouds.8 mph68%30.15 "HgN/A
6:00 PM61 °FScattered clouds.8 mph68%30.15 "HgN/A
5:30 PM63 °FScattered clouds.10 mph68%30.15 "HgN/A
5:00 PM63 °FScattered clouds.13 mph64%30.15 "HgN/A
4:30 PM63 °FScattered clouds.13 mph68%30.15 "HgN/A
4:00 PM63 °FScattered clouds.13 mph64%30.15 "HgN/A
3:30 PM63 °FPartly sunny.15 mph64%30.12 "HgN/A
3:00 PM63 °FPartly sunny.13 mph64%30.12 "HgN/A
2:30 PM63 °FPartly sunny.15 mph64%30.12 "HgN/A
2:00 PM63 °FPartly sunny.13 mph59%30.12 "HgN/A
1:00 PM61 °FPartly sunny.13 mph68%30.12 "HgN/A
12:30 PM63 °FPartly sunny.15 mph59%30.09 "HgN/A
12:00 PM63 °FPartly sunny.13 mph68%30.09 "HgN/A
11:30 AM63 °FPartly sunny.13 mph64%30.07 "HgN/A
11:00 AM63 °FOvercast.15 mph64%30.07 "HgN/A
10:30 AM61 °FOvercast.13 mph68%30.07 "HgN/A
10:00 AM63 °FPartly sunny.13 mph64%30.04 "HgN/A
9:30 AM61 °FScattered clouds.13 mph68%30.04 "HgN/A
9:00 AM63 °FPartly sunny.15 mph64%30.01 "HgN/A
8:30 AM63 °FPartly sunny.13 mph68%30.01 "HgN/A
8:00 AM63 °FPartly sunny.17 mph64%29.98 "HgN/A
7:30 AM63 °FPartly sunny.17 mph64%29.98 "HgN/A
7:00 AM61 °FScattered clouds.13 mph72%29.95 "HgN/A
6:30 AM61 °FPassing clouds.15 mph68%29.95 "HgN/A
6:00 AM61 °FPassing clouds.13 mph72%29.95 "HgN/A
5:30 AM61 °FPassing clouds.10 mph72%29.95 "HgN/A
5:00 AM61 °FPassing clouds.8 mph68%29.95 "HgN/A
4:30 AM59 °FPassing clouds.8 mph77%29.95 "HgN/A
4:00 AM59 °FSprinkles. Passing clouds.8 mph82%29.95 "HgN/A
3:00 AM59 °FPassing clouds.8 mph82%29.92 "HgN/A
2:00 AM59 °FPassing clouds.8 mph88%29.92 "HgN/A
1:00 AM61 °FPassing clouds.10 mph83%29.92 "HgN/A
12:00 AM63 °FPassing clouds.10 mph73%29.92 "HgN/A
11:00 PM
Mon, Aug 29
63 °FPassing clouds.10 mph73%29.92 "HgN/A
10:30 PM64 °FPassing clouds.13 mph73%29.92 "HgN/A
10:00 PM64 °FPassing clouds.13 mph73%29.89 "HgN/A
9:30 PM64 °FPassing clouds.10 mph73%29.89 "HgN/A
9:00 PM64 °FPassing clouds.15 mph73%29.89 "HgN/A
Weather by CustomWeather, © 2016

See weather overviewHow to use our weather pages